SCP
-0 -0 -0 -0 -0 -0 -0 -0 -0 -0 -0 0 0 0 0 0 0 0 0 0 0 0 0 0 0 0 0 0 0 0 0 0 0 0 0 -0 0 0 0 0 0 -0 0
-0 -0 -0 -0 -0 0 -0 -0 -0 -0 -0 -0 0 0 0 0 0 0 0 0 0 0 0 0 0 -0 -0 -0 -0 -0 0 0 0 0 0 -0 0 0 0 0 0 0 0
-0 -0 -0 -0 -0 0 0 0 0 0 0 0 0 0 0 0 0 0 0 -0 -0 -0 -0 -0 -0 -0 -0 -0 -0 -0 -0 -0 0 0 -0 -0 0 0 0 0 0 0 0
-0 -0 -0 -0 0 0 0 -0 0 0 0 0 0 0 0 0 0 0 0 0 0 0 0 0 -0 -0 -0 -0 -0 -0 -0 -0 -0 -0 -0 0 0 0 0 0 0 0 0
-0 -0 -0 -0 -0 0 0 0 0 0 0 0 -0 -0 -0 -0 -0 -0 -0 0 0 0 0 0 0 -0 -0 0 0 -0 -0 -0 -0 -0 -0 0 0 0 0 0 -0 -0 -0
-0 -0 -0 -0 -0 0 0 0 0 0 0 -0 -0 -0 -0 -0 -0 -0 -0 -0 -0 -0 -0 -0 -0 0 0 0 0 0 0 0 -0 0 0 0 0 0 0 -0 -0 0 0
-0 -0 -0 -0 0 -0 0 0 0 -0 -0 -0 -0 -0 -0 -0 -0 -0 -0 -0 -0 -0 -0 -0 -0 0 0 0 0 0 0 0 0 0 0 0 0 0 0 0 0 -0 0
-0 -0 -0 -0 -0 0 0 -0 -0 -0 -0 -0 -0 -0 -0 0 -0 0 0 0 0 0 0 0 0 0 0 0 0 0 0 0 0 0 0 0 0 0 0 0 0 0 0
-0 -0 -0 -0 -0 -0 0 -0 -0 -0 -0 -0 0 0 0 0 0 0 0 0 0 0 0 0 0 0 0 0 0 0 0 0 0 0 0 0 0 0 0 0 0 0 0
-0 -0 -0 -0 -0 -0 -0 0 -0 -0 -0 0 0 0 0 0 0 0 0 0 0 0 0 0 0 0 0 0 0 0 0 0 0 0 0 1 0 0 0 0 0 1 0
0 -0 -0 -0 0 0 0 0 0 0 0 0 0 0 0 0 0 0 0 0 0 0 0 0 0 0 0 0 0 0 0 0 0 0 0 0 0 0 0 0 1 1 1
0 0 0 0 0 0 0 0 0 0 0 0 0 0 0 0 0 0 0 0 0 0 0 0 0 0 0 0 0 0 0 0 0 0 0 0 0 0 0 0 1 1 1
0 0 0 0 0 0 0 0 0 0 0 0 0 0 0 0 0 0 0 0 0 0 0 0 0 0 0 0 0 0 0 0 0 0 0 0 0 0 0 0 0 1 1
0 0 0 0 0 0 0 0 0 0 0 0 0 0 0 0 0 0 0 0 0 0 0 0 0 0 0 0 0 0 0 0 0 0 0 0 0 0 0 0 0 0 1
0 0 0 0 0 0 0 0 0 0 0 0 0 0 0 0 0 0 0 0 0 0 0 0 0 0 0 0 0 0 0 0 0 0 0 0 0 0 0 0 0 0 0
1 1 1 1 1 1 0 0 0 0 0 0 0 0 0 0 0 0 0 0 0 0 0 0 0 0 0 0 0 0 0 0 0 0 0 0 0 0 0 0 0 0 0
1 1 1 1 1 0 0 0 0 0 0 0 0 0 0 0 0 0 0 0 0 0 0 0 0 0 0 0 0 0 0 0 0 0 0 0 0 0 0 0 0 0 0
1 1 1 0 0 0 0 0 0 0 0 0 0 0 0 0 0 0 0 0 0 0 0 0 0 0 0 0 0 0 0 0 0 0 0 0 0 0 0 0 0 0 0
1 1 1 1 0 0 0 0 0 0 0 0 0 0 0 0 0 0 0 0 0 0 0 0 0 0 0 0 0 0 0 0 0 0 0 0 0 0 0 0 0 0 0
1 1 1 1 1 1 0 0 0 0 0 0 0 0 0 0 0 0 0 0 0 0 0 0 0 0 0 0 0 0 0 0 0 0 0 0 0 0 0 0 0 0 0
1 1 0 0 1 1 0 0 0 0 1 1 0 0 0 0 0 0 0 0 0 0 0 0 0 0 0 0 0 0 0 0 0 0 0 0 0 0 0 0 0 0 0
0 1 0 0 1 1 0 1 1 1 1 0 0 0 0 0 0 0 0 0 0 0 0 0 0 0 0 0 0 0 0 0 0 0 0 0 0 0 0 0 0 0 0
0 0 0 0 0 0 1 1 1 1 0 0 0 0 0 0 0 0 0 0 0 0 0 0 0 0 0 0 0 0 0 0 0 0 0 0 0 0 0 0 0 0 0
0 0 0 0 0 1 1 1 1 0 0 0 0 0 0 0 0 0 0 0 0 0 0 0 0 0 0 0 0 0 0 0 0 0 0 0 0 0 0 0 0 0 0
0 0 0 1 1 1 1 1 0 0 0 0 0 0 0 0 0 0 0 0 0 0 0 0 0 0 0 0 0 0 0 0 0 0 0 0 0 0 0 0 0 0 0
0 1 1 1 1 1 1 0 0 0 0 0 0 0 0 0 0 0 0 0 0 0 0 0 0 0 0 0 0 0 0 0 0 0 0 0 0 0 0 0 0 0 0
Wind_Speed_500mb
28 27 27 24 23 21 20 20 20 20 21 21 21 20 19 18 17 18 18 17 16 15 15 14 14 13 12 10 9 9 10 12 16 17 18 22 24 24 24 25 31 12 21
32 28 27 25 23 21 20 19 18 18 18 18 17 17 16 15 15 15 15 14 14 14 13 13 12 12 11 9 8 8 9 8 9 12 16 19 20 19 20 21 20 17 21
29 28 27 26 23 21 19 18 17 16 15 15 14 13 13 15 17 17 17 16 16 16 16 16 16 16 15 14 13 13 13 14 12 9 10 12 9 13 13 15 16 16 17
32 28 25 26 23 20 18 16 14 13 12 11 11 14 15 16 17 19 20 21 21 20 20 20 20 21 20 19 18 18 18 17 17 14 11 11 8 13 9 9 10 11 12
31 28 28 26 24 21 17 14 11 9 9 9 11 12 15 18 18 19 20 20 23 25 26 26 25 24 24 23 21 19 19 20 19 17 13 12 10 19 11 9 7 6 8
27 25 28 27 25 21 17 13 9 7 7 8 10 11 12 14 16 19 21 20 21 24 25 26 26 27 27 26 22 20 21 21 19 14 21 18 15 24 16 15 14 13 8
28 25 26 25 23 20 16 12 8 6 6 6 6 7 10 14 16 19 20 21 23 26 28 28 26 24 25 25 24 24 23 23 21 15 21 22 18 29 23 22 22 20 17
23 24 21 22 20 18 15 11 9 8 4 3 4 8 12 14 17 20 21 23 27 29 30 28 25 25 24 25 25 25 26 26 17 22 22 22 29 32 27 24 26 27 27
19 19 18 16 16 14 11 9 8 7 4 6 8 9 8 9 11 16 18 21 26 31 33 26 26 27 28 29 28 28 28 27 21 23 22 18 27 33 30 30 29 32 35
18 16 15 15 9 10 8 8 8 5 4 6 6 4 2 7 14 18 20 26 31 35 34 32 37 35 31 34 38 36 33 27 17 24 23 29 28 25 26 31 35 37 38
17 17 16 14 14 12 12 10 9 7 4 3 4 5 6 8 15 18 29 34 37 39 39 38 40 41 38 31 33 36 35 19 23 24 21 33 31 28 27 28 31 34 38
15 15 15 15 14 13 10 11 10 10 6 8 9 11 8 18 22 29 30 36 39 41 43 42 41 39 37 27 34 36 28 27 26 26 25 33 30 31 34 36 35 36 37
15 15 16 19 19 15 11 10 9 11 12 12 17 16 18 21 22 24 27 33 36 41 38 39 43 42 41 43 41 38 36 32 27 27 28 36 37 33 31 33 34 36 38
14 15 12 16 21 19 15 13 15 15 15 14 15 22 23 21 23 24 27 35 39 43 44 43 44 45 47 45 45 42 40 37 34 32 32 38 40 34 35 33 32 33 34
15 16 15 20 25 24 25 22 22 21 17 17 20 23 22 22 27 23 29 39 41 42 42 43 44 45 47 48 48 45 44 42 42 40 37 41 45 39 38 35 39 38 34
16 19 19 20 23 27 32 29 23 20 20 15 16 18 29 20 35 29 40 36 36 35 38 39 42 43 43 43 45 45 45 45 45 43 42 40 45 47 44 45 45 42 45
14 22 27 23 26 24 20 16 17 15 14 13 13 27 30 30 38 45 31 34 33 36 36 38 40 42 43 43 43 42 43 44 44 43 43 44 44 47 48 49 49 49 44
11 16 20 21 21 18 19 18 16 19 22 22 32 35 27 36 42 46 36 36 37 37 37 39 40 41 41 41 44 44 45 46 47 46 47 46 46 45 48 52 52 55 50
8 12 16 20 21 22 23 20 24 26 29 32 45 21 31 38 39 54 38 37 42 39 41 41 40 39 41 41 42 43 45 48 46 45 45 48 50 54 56 57 57 62 60
10 12 14 17 23 24 26 25 29 32 35 43 44 20 40 34 43 50 39 36 38 41 42 41 44 41 39 39 41 42 43 44 43 44 42 43 45 48 46 48 47 50 46
22 16 13 17 25 24 21 18 21 23 24 27 22 33 41 32 34 35 37 39 39 40 42 41 40 39 38 35 36 37 35 33 34 34 37 38 32 30 31 31 29 26 31
16 15 18 21 25 23 20 20 29 32 34 26 23 33 42 38 32 36 39 40 40 47 44 40 47 42 37 32 31 33 34 34 33 30 27 34 31 25 23 23 21 23 26
19 16 21 23 19 21 25 27 34 36 32 24 26 32 31 34 35 37 41 43 45 45 43 46 45 45 42 37 31 28 15 23 29 25 25 21 21 21 19 20 20 19 18
17 15 16 16 15 20 26 24 30 30 25 28 31 34 50 36 39 40 43 46 46 44 42 37 42 47 39 39 32 36 38 37 22 23 22 17 18 19 25 20 10 12 13
7 8 7 15 24 25 27 29 30 22 28 31 35 39 45 40 42 44 46 44 36 32 35 35 32 33 35 38 37 35 36 34 30 26 35 26 23 16 21 26 20 13 14
6 6 9 20 23 29 32 34 34 40 46 48 47 50 43 44 45 43 42 35 36 38 37 37 36 37 39 37 39 36 37 32 33 29 28 32 26 26 19 23 28 25 16
Wind_Direction_500mb
154 163 152 144 127 122 117 110 106 100 92 86 84 82 78 72 66 61 57 53 51 49 46 43 39 40 43 38 40 41 34 24 24 21 20 26 28 37 44 49 70 41 63
157 163 152 146 137 134 125 117 110 103 98 92 83 76 70 66 60 53 45 40 35 30 27 23 22 17 13 6 351 334 327 333 349 8 8 15 5 21 33 45 52 59 63
160 162 153 152 146 135 130 130 124 114 100 88 77 68 56 45 40 36 32 27 21 15 10 4 358 352 349 343 334 323 317 315 315 327 4 30 321 355 21 31 39 45 55
159 158 160 155 148 142 140 134 122 107 92 80 61 49 44 43 43 38 29 27 22 17 13 8 0 351 342 333 328 323 316 311 310 313 350 305 320 317 346 8 23 28 36
153 157 164 157 152 149 148 138 128 110 93 74 61 54 52 50 45 33 26 19 15 9 0 356 356 355 353 342 328 316 310 308 306 309 299 291 274 289 290 301 319 351 4
152 158 163 161 157 155 155 154 146 120 92 79 76 65 56 43 46 39 35 27 20 9 6 2 359 354 351 350 341 328 316 308 305 315 293 288 298 264 270 270 272 286 302
156 162 168 163 160 161 164 164 155 139 121 109 85 73 63 60 50 42 35 29 19 9 3 358 354 355 353 351 352 349 340 327 316 280 277 288 278 274 274 271 265 260 271
163 162 180 170 170 172 176 175 174 164 141 82 82 89 82 62 54 40 31 22 11 4 359 354 350 346 345 337 332 330 328 332 328 293 281 280 264 277 276 273 265 259 260
169 168 172 181 182 185 189 191 191 179 160 90 77 73 76 51 33 19 11 2 355 353 353 347 341 336 330 326 323 319 313 310 304 296 294 281 274 275 265 266 265 264 259
172 177 182 176 197 194 221 206 206 228 165 63 64 69 70 353 355 350 3 331 340 341 340 337 335 333 327 315 310 313 313 324 313 281 276 271 276 292 276 267 263 264 262
176 178 184 188 204 194 206 226 217 234 249 281 320 315 331 321 339 348 321 328 327 326 324 323 320 318 321 310 312 320 324 302 291 288 281 270 281 285 282 283 275 269 263
180 189 192 194 202 203 206 217 227 223 238 245 259 280 318 309 320 324 322 322 317 317 314 315 308 305 309 308 299 310 309 298 292 283 281 278 287 288 284 285 280 274 269
188 193 209 217 213 203 220 236 247 246 255 270 271 286 304 310 307 319 317 323 313 319 318 306 299 297 290 289 293 291 292 296 292 284 281 284 282 286 284 283 280 273 266
200 206 224 224 232 231 235 251 258 257 264 257 269 300 305 315 308 307 316 324 322 318 311 310 301 294 285 283 284 285 283 282 281 280 278 286 288 286 282 282 283 278 273
226 231 231 251 250 251 256 251 256 249 258 258 287 302 302 309 306 322 325 328 320 314 312 305 300 294 288 285 283 279 277 275 274 273 275 281 288 283 284 280 276 282 276
233 235 235 264 263 262 267 264 253 254 261 273 284 294 312 317 310 322 322 321 320 316 314 308 301 294 293 287 282 279 277 275 271 272 274 275 283 285 278 278 280 280 278
237 240 257 264 265 267 255 244 240 253 259 270 280 300 303 301 306 315 326 325 320 316 317 312 306 300 293 288 284 280 278 275 273 272 272 273 272 278 281 283 277 276 276
208 260 253 255 269 259 248 250 247 261 269 275 292 308 300 308 313 325 324 321 312 322 314 310 308 303 297 290 282 277 274 271 271 273 274 277 274 268 269 276 283 279 272
254 264 255 264 265 263 260 258 265 273 278 290 305 305 296 309 315 322 325 317 315 318 315 314 309 304 300 295 289 283 276 272 273 273 272 272 273 274 272 270 267 272 273
266 289 249 258 259 265 265 276 279 282 294 299 308 289 304 307 313 320 321 310 316 317 314 309 313 308 300 299 293 286 280 273 268 270 272 278 278 278 274 270 263 263 271
272 290 278 273 275 270 264 269 282 281 289 298 297 295 304 305 312 308 313 311 311 308 307 311 308 312 302 295 294 289 282 274 272 270 278 282 280 285 280 272 263 249 246
262 273 302 305 280 271 263 274 271 283 294 296 286 295 308 309 306 307 306 308 306 310 310 306 301 309 305 294 290 289 286 281 267 266 275 281 277 273 281 267 250 234 234
264 269 303 318 281 269 263 274 287 299 315 311 297 302 295 304 307 308 313 314 313 311 305 297 297 295 293 288 279 272 279 267 296 274 286 278 282 274 268 255 232 231 235
257 267 296 302 286 279 288 277 290 307 304 295 311 307 313 312 311 317 316 311 307 304 296 295 292 293 289 286 275 265 264 270 284 285 277 273 285 268 268 266 274 240 227
267 270 272 309 308 301 302 301 311 303 305 309 312 310 314 315 313 312 313 315 315 318 309 307 305 305 296 285 277 275 267 275 266 265 277 281 286 294 275 259 257 253 238
285 282 289 301 306 309 311 316 316 317 318 318 315 320 315 312 312 311 312 313 312 309 304 298 294 297 300 291 277 285 270 270 274 271 277 283 287 293 303 262 246 247 252
Wind_Speed_850mb
28 27 27 24 23 21 20 20 20 20 21 21 21 20 19 18 17 18 18 17 16 15 15 14 14 13 12 10 9 9 10 12 16 17 18 22 24 24 24 25 31 12 21
32 28 27 25 23 21 20 19 18 18 18 18 17 17 16 15 15 15 15 14 14 14 13 13 12 12 11 9 8 8 9 8 9 12 16 19 20 19 20 21 20 17 21
29 28 27 26 23 21 19 18 17 16 15 15 14 13 13 15 17 17 17 16 16 16 16 16 16 16 15 14 13 13 13 14 12 9 10 12 9 13 13 15 16 16 17
32 28 25 26 23 20 18 16 14 13 12 11 11 14 15 16 17 19 20 21 21 20 20 20 20 21 20 19 18 18 18 17 17 14 11 11 8 13 9 9 10 11 12
31 28 28 26 24 21 17 14 11 9 9 9 11 12 15 18 18 19 20 20 23 25 26 26 25 24 24 23 21 19 19 20 19 17 13 12 10 19 11 9 7 6 8
27 25 28 27 25 21 17 13 9 7 7 8 10 11 12 14 16 19 21 20 21 24 25 26 26 27 27 26 22 20 21 21 19 14 21 18 15 24 16 15 14 13 8
28 25 26 25 23 20 16 12 8 6 6 6 6 7 10 14 16 19 20 21 23 26 28 28 26 24 25 25 24 24 23 23 21 15 21 22 18 29 23 22 22 20 17
23 24 21 22 20 18 15 11 9 8 4 3 4 8 12 14 17 20 21 23 27 29 30 28 25 25 24 25 25 25 26 26 17 22 22 22 29 32 27 24 26 27 27
19 19 18 16 16 14 11 9 8 7 4 6 8 9 8 9 11 16 18 21 26 31 33 26 26 27 28 29 28 28 28 27 21 23 22 18 27 33 30 30 29 32 35
18 16 15 15 9 10 8 8 8 5 4 6 6 4 2 7 14 18 20 26 31 35 34 32 37 35 31 34 38 36 33 27 17 24 23 29 28 25 26 31 35 37 38
17 17 16 14 14 12 12 10 9 7 4 3 4 5 6 8 15 18 29 34 37 39 39 38 40 41 38 31 33 36 35 19 23 24 21 33 31 28 27 28 31 34 38
15 15 15 15 14 13 10 11 10 10 6 8 9 11 8 18 22 29 30 36 39 41 43 42 41 39 37 27 34 36 28 27 26 26 25 33 30 31 34 36 35 36 37
15 15 16 19 19 15 11 10 9 11 12 12 17 16 18 21 22 24 27 33 36 41 38 39 43 42 41 43 41 38 36 32 27 27 28 36 37 33 31 33 34 36 38
14 15 12 16 21 19 15 13 15 15 15 14 15 22 23 21 23 24 27 35 39 43 44 43 44 45 47 45 45 42 40 37 34 32 32 38 40 34 35 33 32 33 34
15 16 15 20 25 24 25 22 22 21 17 17 20 23 22 22 27 23 29 39 41 42 42 43 44 45 47 48 48 45 44 42 42 40 37 41 45 39 38 35 39 38 34
16 19 19 20 23 27 32 29 23 20 20 15 16 18 29 20 35 29 40 36 36 35 38 39 42 43 43 43 45 45 45 45 45 43 42 40 45 47 44 45 45 42 45
14 22 27 23 26 24 20 16 17 15 14 13 13 27 30 30 38 45 31 34 33 36 36 38 40 42 43 43 43 42 43 44 44 43 43 44 44 47 48 49 49 49 44
11 16 20 21 21 18 19 18 16 19 22 22 32 35 27 36 42 46 36 36 37 37 37 39 40 41 41 41 44 44 45 46 47 46 47 46 46 45 48 52 52 55 50
8 12 16 20 21 22 23 20 24 26 29 32 45 21 31 38 39 54 38 37 42 39 41 41 40 39 41 41 42 43 45 48 46 45 45 48 50 54 56 57 57 62 60
10 12 14 17 23 24 26 25 29 32 35 43 44 20 40 34 43 50 39 36 38 41 42 41 44 41 39 39 41 42 43 44 43 44 42 43 45 48 46 48 47 50 46
22 16 13 17 25 24 21 18 21 23 24 27 22 33 41 32 34 35 37 39 39 40 42 41 40 39 38 35 36 37 35 33 34 34 37 38 32 30 31 31 29 26 31
16 15 18 21 25 23 20 20 29 32 34 26 23 33 42 38 32 36 39 40 40 47 44 40 47 42 37 32 31 33 34 34 33 30 27 34 31 25 23 23 21 23 26
19 16 21 23 19 21 25 27 34 36 32 24 26 32 31 34 35 37 41 43 45 45 43 46 45 45 42 37 31 28 15 23 29 25 25 21 21 21 19 20 20 19 18
17 15 16 16 15 20 26 24 30 30 25 28 31 34 50 36 39 40 43 46 46 44 42 37 42 47 39 39 32 36 38 37 22 23 22 17 18 19 25 20 10 12 13
7 8 7 15 24 25 27 29 30 22 28 31 35 39 45 40 42 44 46 44 36 32 35 35 32 33 35 38 37 35 36 34 30 26 35 26 23 16 21 26 20 13 14
6 6 9 20 23 29 32 34 34 40 46 48 47 50 43 44 45 43 42 35 36 38 37 37 36 37 39 37 39 36 37 32 33 29 28 32 26 26 19 23 28 25 16
Wind_Direction_850mb
154 163 152 144 127 122 117 110 106 100 92 86 84 82 78 72 66 61 57 53 51 49 46 43 39 40 43 38 40 41 34 24 24 21 20 26 28 37 44 49 70 41 63
157 163 152 146 137 134 125 117 110 103 98 92 83 76 70 66 60 53 45 40 35 30 27 23 22 17 13 6 351 334 327 333 349 8 8 15 5 21 33 45 52 59 63
160 162 153 152 146 135 130 130 124 114 100 88 77 68 56 45 40 36 32 27 21 15 10 4 358 352 349 343 334 323 317 315 315 327 4 30 321 355 21 31 39 45 55
159 158 160 155 148 142 140 134 122 107 92 80 61 49 44 43 43 38 29 27 22 17 13 8 0 351 342 333 328 323 316 311 310 313 350 305 320 317 346 8 23 28 36
153 157 164 157 152 149 148 138 128 110 93 74 61 54 52 50 45 33 26 19 15 9 0 356 356 355 353 342 328 316 310 308 306 309 299 291 274 289 290 301 319 351 4
152 158 163 161 157 155 155 154 146 120 92 79 76 65 56 43 46 39 35 27 20 9 6 2 359 354 351 350 341 328 316 308 305 315 293 288 298 264 270 270 272 286 302
156 162 168 163 160 161 164 164 155 139 121 109 85 73 63 60 50 42 35 29 19 9 3 358 354 355 353 351 352 349 340 327 316 280 277 288 278 274 274 271 265 260 271
163 162 180 170 170 172 176 175 174 164 141 82 82 89 82 62 54 40 31 22 11 4 359 354 350 346 345 337 332 330 328 332 328 293 281 280 264 277 276 273 265 259 260
169 168 172 181 182 185 189 191 191 179 160 90 77 73 76 51 33 19 11 2 355 353 353 347 341 336 330 326 323 319 313 310 304 296 294 281 274 275 265 266 265 264 259
172 177 182 176 197 194 221 206 206 228 165 63 64 69 70 353 355 350 3 331 340 341 340 337 335 333 327 315 310 313 313 324 313 281 276 271 276 292 276 267 263 264 262
176 178 184 188 204 194 206 226 217 234 249 281 320 315 331 321 339 348 321 328 327 326 324 323 320 318 321 310 312 320 324 302 291 288 281 270 281 285 282 283 275 269 263
180 189 192 194 202 203 206 217 227 223 238 245 259 280 318 309 320 324 322 322 317 317 314 315 308 305 309 308 299 310 309 298 292 283 281 278 287 288 284 285 280 274 269
188 193 209 217 213 203 220 236 247 246 255 270 271 286 304 310 307 319 317 323 313 319 318 306 299 297 290 289 293 291 292 296 292 284 281 284 282 286 284 283 280 273 266
200 206 224 224 232 231 235 251 258 257 264 257 269 300 305 315 308 307 316 324 322 318 311 310 301 294 285 283 284 285 283 282 281 280 278 286 288 286 282 282 283 278 273
226 231 231 251 250 251 256 251 256 249 258 258 287 302 302 309 306 322 325 328 320 314 312 305 300 294 288 285 283 279 277 275 274 273 275 281 288 283 284 280 276 282 276
233 235 235 264 263 262 267 264 253 254 261 273 284 294 312 317 310 322 322 321 320 316 314 308 301 294 293 287 282 279 277 275 271 272 274 275 283 285 278 278 280 280 278
237 240 257 264 265 267 255 244 240 253 259 270 280 300 303 301 306 315 326 325 320 316 317 312 306 300 293 288 284 280 278 275 273 272 272 273 272 278 281 283 277 276 276
208 260 253 255 269 259 248 250 247 261 269 275 292 308 300 308 313 325 324 321 312 322 314 310 308 303 297 290 282 277 274 271 271 273 274 277 274 268 269 276 283 279 272
254 264 255 264 265 263 260 258 265 273 278 290 305 305 296 309 315 322 325 317 315 318 315 314 309 304 300 295 289 283 276 272 273 273 272 272 273 274 272 270 267 272 273
266 289 249 258 259 265 265 276 279 282 294 299 308 289 304 307 313 320 321 310 316 317 314 309 313 308 300 299 293 286 280 273 268 270 272 278 278 278 274 270 263 263 271
272 290 278 273 275 270 264 269 282 281 289 298 297 295 304 305 312 308 313 311 311 308 307 311 308 312 302 295 294 289 282 274 272 270 278 282 280 285 280 272 263 249 246
262 273 302 305 280 271 263 274 271 283 294 296 286 295 308 309 306 307 306 308 306 310 310 306 301 309 305 294 290 289 286 281 267 266 275 281 277 273 281 267 250 234 234
264 269 303 318 281 269 263 274 287 299 315 311 297 302 295 304 307 308 313 314 313 311 305 297 297 295 293 288 279 272 279 267 296 274 286 278 282 274 268 255 232 231 235
257 267 296 302 286 279 288 277 290 307 304 295 311 307 313 312 311 317 316 311 307 304 296 295 292 293 289 286 275 265 264 270 284 285 277 273 285 268 268 266 274 240 227
267 270 272 309 308 301 302 301 311 303 305 309 312 310 314 315 313 312 313 315 315 318 309 307 305 305 296 285 277 275 267 275 266 265 277 281 286 294 275 259 257 253 238
285 282 289 301 306 309 311 316 316 317 318 318 315 320 315 312 312 311 312 313 312 309 304 298 294 297 300 291 277 285 270 270 274 271 277 283 287 293 303 262 246 247 252